Simultaneous Nadir Overpasses (SNOs) Predictions

Prediction of SNOs between METOP-C and LANDSAT-8 Satellite Orbit:

Table of predicted SNOs for the next 14.0 days since TLE Epoch: 1/28/2024
Index Date (METOP-C) Time (METOP-C) Lat,Lon (METOP-C) SZA (METOP-C ) Date (LANDSAT-8) Time (LANDSAT-8) Lat,Lon (LANDSAT-8) SZA (LANDSAT-8 ) Distance(km) Time Diff (sec)
1 01/28/2024 08:19:44 -81.11, -85.83 79.02 01/28/2024 08:20:54 -81.11, -85.75 78.99 1.46 70
2 01/28/2024 09:10:23 81.14, 82.33 101.07 01/28/2024 09:10:19 81.14, 82.34 101.07 0.25 4
3 01/31/2024 03:54:03 -81.12, -19.19 79.76 01/31/2024 03:55:10 -81.12, -19.16 79.73 0.48 67
4 01/31/2024 04:44:42 81.14, 148.91 100.33 01/31/2024 04:44:35 81.15, 148.91 100.33 0.29 7
5 02/02/2024 23:28:23 -81.12, 47.37 80.55 02/02/2024 23:29:27 -81.11, 47.21 80.54 2.98 64
6 02/03/2024 00:19:02 81.15,-144.60 99.53 02/03/2024 00:18:52 81.14,-144.75 99.51 2.60 10
7 02/05/2024 19:02:43 -81.12, 113.84 81.38 02/05/2024 19:03:43 -81.12, 113.71 81.37 2.31 60
8 02/05/2024 19:53:22 81.15, -78.21 98.69 02/05/2024 19:53:08 81.14, -78.27 98.67 1.06 14
9 02/08/2024 14:37:03 -81.11, 179.84 82.30 02/08/2024 14:37:58 -81.11, 179.99 82.27 2.49 55



Historial Predications of SNOs between METOP-C and LANDSAT-8
